Kiev/Boryspil International Airport

Airport
ICAO code: 
UKBB
IATA Code: 
KBP
Summary
ICAO Region: 
EUR
Territory: 
Location: 
Boryspil,
Serving: 
Kiev
Elevation: 
427 ft
Coordinates: 
Aerial View: 
50° 20' 42" N, 30° 53' 36" E
Metar
Observation
UKBB 182000Z 34009MPS 9999 SCT030 M04/M09 Q1019 TEMPO 34009G16MPS
Station
Boryspil
Date/Time
2022-01-18 20:00:00
Wind direction
340°
Lowest cloud amount
scattered clouds
Temperature
-4°C
Dew point
-9°C
Humidity
68%
QNH
1019 hPa
Weather condition
n/a

Description

International airport serving Ukrainian capital city.

Climatology

Humid Continental climate (Köppen climate classification Dfb) - Variable weather patterns and a large seasonal temperature variance. Summers are often warm and humid with frequent thunderstorms and winters can be very cold with frequent snowfall and persistent snow cover.

Runways

Designator Length Width Surface Rops
18R/36L 3500 63 CON Yes/Yes
18L/36R 4000 60 CON Yes/Yes
Airport map: 
Aerial View: 

SKYbrary Partners:

Safety knowledge contributed by: